map of UGN home
UGN - Airport
Location
City:  Chicago/Waukegan, Illinois, United States
Name:Waukegan National Airport
ICAO:KUGN
IATA:UGN
FAA LID:UGN

Details
Type:Airport (Airfield)
Use:Public/Civil, International (customs landing rights)
Latitude:4225'20"N (42.422160)
Longitude:8752'04"W (-87.867906)
Datum:WGS 1984
Elevation:727 ft (222 m)
Variation:3.84W (WMM2015 magnetic declination)
-0.06 annual change
Runways:2
Longest:6000 × 150 ft (1829 × 45.5 m), paved

Time
Time Zone:UTC-6 (DST-5)
Local Time:

Weather
METAR:KUGN 231355Z 20008KT 2 1/2SM BR OVC005 05/04 A3005 RMK AO2 SLP186 T00500044

Related Locations
Nearby:
Farthest:MQZ: 11065 mi / 17808 km
Margaret River [Margaret River Airport], WA, AU

Find:

   beyond  
but within

Other Information
Maps:
NOTAMs:
Links:
Sources:

  
flag of United States
flag of Illinois
  

Airport Diagram

Airport diagram for UGN

Airport diagram PDF

Sectional Chart

Flight Planning
at skyvector.com

Satellite Image

Google Maps Satellite view

 

Copyright © 2004-2018 Karl L. Swartz. All rights reserved.
The Great Circle Mapper name and logo are trademarks of the Great Circle Mapper.
All other trademarks mentioned herein belong to their respective owners.
Please see credits for attibutions and further copyright information.

  Follow gcmap on Facebook Follow gcmap on Twitter Follow gcmap on Google+ GCmap on LinkedIn

hCard Microformat

Geo Microformat